Weather History for Grand Junction, CO

Change the Weather History Date:

Wednesday, August 28, 2013

  Actual Average Record
Temperature  
Mean Temperature 75 °F 73 °F  
Max Temperature 90 °F 87 °F 97 °F (1948)
Min Temperature 59 °F 59 °F 48 °F (1964)
Degree Days  
Heating Degree Days 0 0  
Month to date heating degree days 0 0  
Since 1 June heating degree days 5 23  
Since 1 July heating degree days 0 1  
Cooling Degree Days 10 8  
Month to date cooling degree days 259 304  
Year to date cooling degree days 1081 996  
Since 1 June cooling degree days 1026 945  
Growing Degree Days 24 (Base 50)    
Moisture  
Dew Point 54 °F    
Average Humidity 57    
Maximum Humidity 93    
Minimum Humidity 21    
Precipitation  
Precipitation 0.00 in 0.03 in 0.47 in (1939)
Month to date precipitation 1.18 0.84  
Year to date precipitation 5.97 5.74  
Snow  
Snow 0.00 in 0.00 in 0.00 in (2013)
Month to date snowfall 0.0 0.0  
Since 1 June snowfall 0.0 0.0  
Since 1 July snowfall 0.0 0.0  
Snow Depth 0.00 in    
Sea Level Pressure  
Sea Level Pressure 29.94 in    
Wind  
Wind Speed 6 mph (NNW)    
Max Wind Speed 15 mph    
Max Gust Speed 20 mph    
Visibility 10 miles    
Events      
T = Trace of Precipitation, MM = Missing Value Source: NWS Daily Summary

Daily Weather History Graph

Daily Weather History Graph

Search for Another Location

Airport:

Trip Planner

Search our weather history database for the weather conditions in past years. The results will help you decide how hot, cold, wet, or windy it might be!

Date:

Astronomy

Aug. 28, 2013 Rise Set
Actual Time 6:39 AM MDT 7:50 PM MDT
Civil Twilight 6:11 AM MDT 8:17 PM MDT
Nautical Twilight 5:38 AM MDT 8:50 PM MDT
Astronomical Twilight 5:04 AM MDT 9:25 PM MDT
Moon No Moon Rise 2:29 PM MDT (8/28)
Length of Visible Light 14h 06m
Length of Day
13h 10m
Waning Gibbous, 47% of the Moon is Illuminated
Aug 28
Waning Gibbous
Sep 5
New
Sep 12
First Quarter
Sep 19
Full
Sep 26
Last Quarter

Hourly Weather History & Observations

Time (MDT) Temp. Heat Index Dew Point Humidity Pressure Visibility Wind Dir Wind Speed Gust Speed Precip Events Conditions
12:53 AM 64.9 °F - 60.1 °F 84% 29.96 in 10.0 mi Calm Calm - N/A   Clear
1:53 AM 64.9 °F - 60.1 °F 84% 29.95 in 10.0 mi Calm Calm - N/A   Clear
2:53 AM 63.0 °F - 57.9 °F 84% 29.95 in 10.0 mi East 4.6 mph - N/A   Clear
3:53 AM 63.0 °F - 57.9 °F 84% 29.96 in 10.0 mi East 4.6 mph - N/A   Clear
4:53 AM 62.1 °F - 57.9 °F 86% 29.95 in 10.0 mi Calm Calm - N/A   Clear
5:53 AM 59.0 °F - 57.0 °F 93% 29.98 in 10.0 mi ESE 4.6 mph - N/A   Clear
6:53 AM 61.0 °F - 55.9 °F 83% 29.99 in 10.0 mi ESE 9.2 mph - N/A   Clear
7:53 AM 66.0 °F - 57.9 °F 75% 30.00 in 10.0 mi ESE 6.9 mph - N/A   Clear
8:53 AM 71.1 °F - 57.0 °F 61% 29.99 in 10.0 mi East 9.2 mph - N/A   Clear
9:53 AM 73.9 °F - 55.9 °F 53% 30.00 in 10.0 mi SE 9.2 mph - N/A   Clear
10:53 AM 75.9 °F - 55.9 °F 50% 30.00 in 10.0 mi Calm Calm - N/A   Clear
11:53 AM 80.1 °F 80.2 °F 55.9 °F 43% 29.98 in 10.0 mi NW 3.5 mph - N/A   Clear
12:53 PM 82.0 °F 81.6 °F 55.9 °F 41% 29.96 in 10.0 mi Variable 3.5 mph - N/A   Clear
1:53 PM 86.0 °F 84.0 °F 53.1 °F 32% 29.94 in 10.0 mi WNW 5.8 mph - N/A   Clear
2:53 PM 88.0 °F - 51.1 °F 28% 29.91 in 10.0 mi NW 8.1 mph - N/A   Clear
3:53 PM 88.0 °F - 50.0 °F 27% 29.89 in 10.0 mi WNW 10.4 mph 17.3 mph N/A   Clear
4:53 PM 89.1 °F - 46.0 °F 22% 29.87 in 10.0 mi NW 12.7 mph - N/A   Clear
5:53 PM 89.1 °F - 45.0 °F 22% 29.87 in 10.0 mi WNW 11.5 mph - N/A   Clear
6:53 PM 87.1 °F - 48.0 °F 26% 29.88 in 10.0 mi WNW 9.2 mph - N/A   Clear
7:53 PM 82.9 °F - 50.0 °F 32% 29.89 in 10.0 mi WNW 4.6 mph - N/A   Clear
8:53 PM 75.0 °F - 55.0 °F 50% 29.91 in 10.0 mi Calm Calm - N/A   Clear
9:53 PM 77.0 °F - 51.1 °F 40% 29.92 in 10.0 mi NNW 6.9 mph - N/A   Clear
10:53 PM 77.0 °F - 48.9 °F 37% 29.94 in 10.0 mi North 6.9 mph - N/A   Clear
11:53 PM 70.0 °F - 54.0 °F 57% 29.96 in 10.0 mi Calm Calm - N/A   Clear